This demonstration page uses our WeatherBlox Daily Observations layout. Learn more.

Left ArrowRight Arrow

41.86663, -103.66717

Hourly Observations for April 23, 2017

Temp ( °F °C ) Dew Point ( °F °C ) Humidity (%) Winds ( mph kmh ) Pressure ( in mb ) Visibility ( mi km ) Precip ( " mm )
12:53 am 00:53 Clear 41 5 28 -2.2 60 60 ESE 8 13 30.08 1019 10 16.0934 N/A
1:53 am 01:53 Clear 44 6.7 29 -1.7 55 55 VRB 5 7 30.03 1017 10 16.0934 N/A
2:53 am 02:53 Clear 49 9.4 31 -0.6 50 50 S 7 11 29.98 1015 10 16.0934 N/A
3:53 am 03:53 Clear 46 7.8 31 -0.6 56 56 S 8 13 29.97 1015 10 16.0934 N/A
4:53 am 04:53 Clear 41 5 30 -1.1 65 65 E 10 17 29.96 1014 10 16.0934 N/A
5:53 am 05:53 Clear 41 5 32 undefined 70 70 ESE 9 15 29.93 1014 10 16.0934 N/A
6:53 am 06:53 Sunny 40 4.4 31 -0.6 70 70 ESE 10 17 29.93 1014 10 16.0934 N/A
7:53 am 07:53 Sunny 47 8.3 34 1.1 61 61 SE 14 22 29.9 1013 10 16.0934 N/A
8:53 am 08:53 Sunny 54 12.2 35 1.7 49 49 SSE 15 24 29.88 1012 10 16.0934 N/A
9:53 am 09:53 Sunny 57 13.9 36 2.2 45 45 undefined N/A 29.85 1011 10 16.0934 N/A
10:53 am 10:53 Sunny 64 17.8 36 2.2 35 35 SSE 14 22 29.81 1010 10 16.0934 N/A
11:53 am 11:53 Sunny 70 21.1 34 1.1 27 27 S 10 17 29.75 1008 10 16.0934 N/A
12:53 pm 12:53 Sunny 74 23.3 26 -3.3 17 17 SW 9 15 29.71 1006 10 16.0934 N/A
1:53 pm 13:53 Sunny 75 23.9 27 -2.8 17 17 S 8 13 29.67 1005 10 16.0934 N/A
2:53 pm 14:53 Sunny 76 24.4 31 -0.6 19 19 SE 14 22 29.63 1004 10 16.0934 N/A
3:53 pm 15:53 Sunny 75 23.9 31 -0.6 20 20 S 8 13 29.62 1003 10 16.0934 N/A
4:53 pm 16:53 Sunny 76 24.4 26 -3.3 16 16 SSE 15 24 29.6 1002 10 16.0934 N/A
5:53 pm 17:53 Sunny 74 23.3 29 -1.7 19 19 SSE 17 28 29.58 1002 10 16.0934 N/A
6:53 pm 18:53 Sunny 70 21.1 29 -1.7 22 22 S 9 15 29.59 1002 10 16.0934 N/A
7:53 pm 19:53 Clear 64 17.8 37 2.8 37 37 SE 9 15 29.57 1001 10 16.0934 N/A
8:53 pm 20:53 Mostly Clear 60 15.6 37 2.8 42 42 ESE 9 15 29.57 1001 10 16.0934 N/A
9:53 pm 21:53 Clear 58 14.4 37 2.8 46 46 E 10 17 29.54 1000 10 16.0934 N/A
10:53 pm 22:53 Clear 58 14.4 38 3.3 48 48 ESE 13 20 29.5 999 10 16.0934 N/A
11:53 pm 23:53 Clear 55 12.8 38 3.3 53 53 ESE 14 22 29.47 998 10 16.0934 N/A

Powered by AerisWeather